This is the latest recevied weather packets stored in our database for station/object K5SVV. If no packets are shown the sender has not sent any weather packets the latest 10 day(s).
| Time | Temp. | Humidity | Pressure | Rain* | Wind** | Luminosity | Snow |
|---|---|---|---|---|---|---|---|
| 1777940059 | 24.44° C | 72% | 1006.3 hPa | 0 mm | - | 64 W/m² | - |
| 1777939756 | 24.44° C | 72% | 1006.4 hPa | 0 mm | - | 74 W/m² | - |
| 1777939455 | 24.44° C | 72% | 1006.5 hPa | 0 mm | - | 80 W/m² | - |
| 1777939151 | 25° C | 71% | 1006.4 hPa | 0 mm | - | 91 W/m² | - |
| 1777938848 | 25° C | 71% | 1006.3 hPa | 0 mm | - | 101 W/m² | - |
| 1777938544 | 25° C | 70% | 1006.3 hPa | 0 mm | - | 93 W/m² | - |
| 1777938242 | 25° C | 70% | 1006.3 hPa | 0 mm | - | 102 W/m² | - |
| 1777937938 | 25° C | 70% | 1006.5 hPa | 0 mm | - | 131 W/m² | - |
| 1777937634 | 25° C | 69% | 1006.5 hPa | 0 mm | - | 137 W/m² | - |
| 1777937330 | 25° C | 69% | 1006.5 hPa | 0 mm | - | 166 W/m² | - |
| 1777937028 | 25° C | 68% | 1006.6 hPa | 0 mm | - | 154 W/m² | - |
| 1777936724 | 25.56° C | 69% | 1006.6 hPa | 0 mm | - | 161 W/m² | - |
| 1777936421 | 25.56° C | 69% | 1006.8 hPa | 0 mm | - | 202 W/m² | - |
| 1777936117 | 25° C | 69% | 1006.7 hPa | 0 mm | - | 224 W/m² | - |
| 1777935815 | 25° C | 70% | 1006.7 hPa | 0 mm | - | 231 W/m² | - |
| 1777935514 | 25° C | 69% | 1006.8 hPa | 0 mm | - | 148 W/m² | - |
| 1777935210 | 25° C | 70% | 1006.9 hPa | 0 mm | - | 150 W/m² | - |
| 1777934907 | 25.56° C | 69% | 1007.1 hPa | 0 mm | - | 155 W/m² | - |
| 1777934604 | 25.56° C | 68% | 1007 hPa | 0 mm | - | 206 W/m² | - |
| 1777934301 | 25.56° C | 68% | 1007 hPa | 0 mm | - | 255 W/m² | - |
| 1777933996 | 25.56° C | 68% | 1006.9 hPa | 0 mm | - | 390 W/m² | - |
| 1777933693 | 25.56° C | 67% | 1007 hPa | 0 mm | - | 235 W/m² | - |
| 1777933390 | 26.11° C | 67% | 1007.1 hPa | 0 mm | - | 327 W/m² | - |
| 1777933089 | 25.56° C | 68% | 1006.9 hPa | 0 mm | - | 356 W/m² | - |
| 1777932785 | 25.56° C | 67% | 1006.9 hPa | 0 mm | - | 437 W/m² | - |
* Rain latest hour (hover to see other rain measurements)
** Current wind speed in m/s (hover to see current wind gust speed)